Regional Weather Roundup
Issued by NWS Sterling, VA

Home | Current Version | Previous Version | Graphics & Text | Print | Product List | Glossary On
Versions: 1 2 3 4 5 6 7 8 9 10 11 12 13 14 15 16 17 18 19 20 21 22 23 24 25 26 27
000
ASUS41 KLWX 290710
RWRLWX

REGIONAL WEATHER ROUNDUP
NATIONAL WEATHER SERVICE BALTIMORE MD/WASHINGTON DC
300 AM EDT FRI JUL 29 2016

Note: "FAIR" indicates few or no clouds below 12,000 feet
with no significant weather and/or obstructions to visibility.
 TC=TEMPERATURE CELSIUS

 * =Non NWS site. Station does not report precipitation (e.g. rain,
    snow, etc.), thunder, or fog.

DCZ001-MDZ009-015-VAZ040>042-051-053>054-290800-
WASHINGTON METRO

CITY           SKY/WX    TMP DP  RH WIND       PRES   REMARKS
WASHINGTON NAT LGT RAIN  78  75  90 N6        29.80F
DULLES         LGT RAIN  74  73  97 NW7       29.82F FOG
QUANTICO       LGT RAIN  77  74  90 N5        29.80F
LEESBURG*      RAIN      73  73 100 N7        29.84F
MANASSAS*      CLOUDY    75  75 100 NW9       29.81F
GAITHERSBURG*  CLOUDY    73  70  88 CALM      29.86F

$$

MDZ006>007-011-014-290800-
BALTIMORE METRO

CITY           SKY/WX    TMP DP  RH WIND       PRES   REMARKS
BWI AIRPORT    LGT RAIN  75  73  93 N7        29.80F FOG
MD SCIENCE CTR   N/A     75  73  93 MISG      29.81F
MARTIN STATE   LGT RAIN  73  73 100 E3        29.82F
ANNAPOLIS      LGT RAIN  76  74  93 N5        29.78F
FORT MEADE*      N/A     73  72  94 CALM      29.83F

$$

MDZ012-015-019>023-290800-
MARYLAND EASTERN SHORE

CITY           SKY/WX    TMP DP  RH WIND       PRES   REMARKS
OCEAN CITY       N/A    N/A N/A N/A MISG      29.77F
SALISBURY      NOT AVBL
BAY BRIDGE AP* CLOUDY    73  73 100 E5        29.79F
CAMBRIDGE*     CLOUDY    72  72 100 CALM      29.79F
EASTON*        CLOUDY    75  75 100 E5        29.83F

$$

MDZ017>025-290800-
SOUTHERN MARYLAND

CITY           SKY/WX    TMP DP  RH WIND       PRES   REMARKS
PATUXENT RIVER CLOUDY    76  73  91 CALM      29.76F THUNDER
ST INIGOES     TSTM      78  75  90 W9        29.78F
LEONARDTOWN*   CLOUDY    73  72  94 CALM      29.78F

$$

MDZ003>005-290800-
NORTH CENTRAL MARYLAND

CITY           SKY/WX    TMP DP  RH WIND       PRES   REMARKS
FREDERICK*     LGT RAIN  72  72 100 N6        29.86F
HAGERSTOWN APT LGT RAIN  72  70  93 N8        29.86F FOG

$$

MDZ501>502-290800-
WESTERN MARYLAND

CITY           SKY/WX    TMP DP  RH WIND       PRES   REMARKS
OAKLAND*       FOG       61  61 100 CALM      29.99S VSB 1/2
CUMBERLAND*    CLOUDY    70  70 100 CALM      29.93S

$$

VAZ025>031-290800-
SHENANDOAH VALLEY

CITY           SKY/WX    TMP DP  RH WIND       PRES   REMARKS
WINCHESTER*    RAIN      70  70 100 NW3       29.86F
FRONT ROYAL*   CLOUDY    70  70 100 CALM      29.86S
LURAY*         LGT RAIN N/A N/A N/A CALM      29.88S
NEW MARKET*    CLOUDY   N/A N/A N/A CALM      29.88R
STAUNTON*      RAIN      70  69  98 CALM      29.92S
WAYNESBORO*    CLOUDY    70  68  95 NW6       29.91F

$$

WVZ021-048>050-054>055-290800-
EASTERN WEST VIRGINIA PANHANDLE

CITY           SKY/WX    TMP DP  RH WIND       PRES   REMARKS
MARTINSBURG    LGT RAIN  70  68  93 N8        29.85F
PETERSBURG*    CLOUDY    70  69  98 CALM      29.90F FOG

$$

VAZ036>039-050-290800-
CENTRAL FOOTHILLS

CITY           SKY/WX    TMP DP  RH WIND       PRES   REMARKS
CHARLOTTESVILL LGT RAIN  74  71  91 CALM      29.86R FOG
CULPEPER*      LGT RAIN  73  73  98 NW5       29.85R
ORANGE*          N/A     73  73 100 CALM      29.87R
GORDONSVILLE*  CLOUDY    73  73  99 CALM      29.85R
WARRENTON*     LGT RAIN  74  69  85 NW7       29.82S

$$

VAZ055>057-290800-
NORTH AND CENTRAL PIEDMONT

CITY           SKY/WX    TMP DP  RH WIND       PRES   REMARKS
FREDERICKSBRG* MOCLDY    76  76 100 W3        29.80F
STAFFORD*      DRIZZLE   74  73  96 W3        29.84F

$$

NCZ024-NYZ072-PAZ021-071-VAZ022-071-290800-
OTHER REGIONAL OBSERVATIONS

CITY           SKY/WX    TMP DP  RH WIND       PRES   REMARKS
NEW YORK CITY  CLOUDY    75  72  90 VRB3      29.87F FOG
PHILADELPHIA   CLOUDY    75  72  90 NE3       29.82F
PITTSBURGH     PTCLDY    65  63  93 SE3       29.92F FOG
ROANOKE        FAIR      72  70  93 W6        29.92F
RICHMOND       MOCLDY    75  73  93 CALM      29.81F
RALEIGH        CLEAR     77  70  79 W5        29.87F

$$

ANZ530>537-290800-
MARINE OBSERVATIONS

STATION/POSITION TIME  TEMP    WIND        PRES
                       AIR SEA DIR/SP/G
                 (UTC) (F)     (DEG/KT/KT) (MB)
THOMAS PT LIGHT  0700   76 84  110/  9/ 10 1009.8F
BALT KEY BRIDGE  0648           80/  9/ 10 1009.1F
COVE POINT       0648          260/  5/  9 1009.3F
LEWISETTA        0648      87  320/ 11/ 14 1008.5F
SOLOMONS ISLAND  0648      86  300/  4/  9   N/A
PINEY POINT      0630          320/ 17/ 20   N/A

$$





USA.gov is the U.S. government's official web portal to all federal, state and local government web resources and services.